OSCAR 7 (AO-7) 1 07530U 74089B 26106.28863609 -.00000036 00000+0 65292-4 0 9997 2 07530 101.9942 118.8831 0011887 248.5677 123.0065 12.53697133352767 PHASE 3B (AO-10) 1 14129U 83058B 26102.81319713 -.00000295 00000+0 00000+0 0 9990 2 14129 25.8997 230.4827 6034279 97.6141 330.5213 2.05874162294146 UOSAT 2 (UO-11) 1 14781U 84021B 26105.86347982 .00000773 00000+0 84603-4 0 9998 2 14781 97.8006 72.1616 0008539 39.2959 320.8877 14.90632276247848 LUSAT (LO-19) 1 20442U 90005G 26106.29676858 .00000077 00000+0 44180-4 0 9996 2 20442 98.8899 126.3843 0012128 32.6806 327.5126 14.34103409893523 EYESAT A (AO-27) 1 22825U 93061C 26106.11685165 .00000043 00000+0 33459-4 0 9990 2 22825 98.6916 173.5417 0007242 284.1856 75.8522 14.30925227698127 ITAMSAT (IO-26) 1 22826U 93061D 26106.18462458 .00000056 00000+0 37941-4 0 9990 2 22826 98.6864 173.5207 0007740 264.8520 95.1780 14.31350549698449 RADIO ROSTO (RS15) 1 23439U 94085A 26106.21100296 -.00000047 00000+0 -12781-3 0 9997 2 23439 64.8194 43.4466 0154106 15.1265 345.4193 11.27583878288916 JAS-2 (FO-29) 1 24278U 96046B 26106.05680027 -.00000019 00000+0 19836-4 0 9992 2 24278 98.5318 323.4110 0348825 257.6399 98.5496 13.53271201464767 TECHSAT 1B (GO-32) 1 25397U 98043D 26106.25028671 .00000029 00000+0 32542-4 0 9996 2 25397 99.0059 97.4532 0002104 59.3733 300.7653 14.24415989442514 ISS (ZARYA) 1 25544U 98067A 26105.87667374 .00005471 00000+0 10765-3 0 9990 2 25544 51.6326 248.4785 0006598 317.1782 42.8691 15.48928061562096 PCSAT (NO-44) 1 26931U 01043C 26106.27576323 .00000054 00000+0 51323-4 0 9995 2 26931 67.0519 44.3993 0006658 264.3294 95.7049 14.31931488281588 SAUDISAT 1C (SO-50) 1 27607U 02058C 26105.97976697 .00000417 00000+0 67375-4 0 9994 2 27607 64.5524 321.4340 0075541 273.7912 85.4559 14.82909238255239 CUTE-1 (CO-55) 1 27844U 03031E 26106.28836476 .00000193 00000+0 10234-3 0 9996 2 27844 98.6764 115.6217 0009738 12.8903 347.2523 14.24296578182869 CUBESAT XI-IV (CO-57) 1 27848U 03031J 26105.96475548 .00000153 00000+0 86362-4 0 9995 2 27848 98.6796 115.0646 0010042 31.3577 328.8198 14.23586939182529 MOZHAETS 4 (RS22) 1 27939U 03042A 26106.29899840 .00000409 00000+0 71367-4 0 9993 2 27939 98.3462 288.9142 0012520 103.6585 69.6378 14.73353713206437 CUBESAT XI-V 1 28895U 05043F 26106.16021387 .00000862 00000+0 14405-3 0 9999 2 28895 98.2908 260.5119 0014873 46.5523 313.6919 14.72466487 92622 CUTE-1.7+APD II (CO-65) 1 32785U 08021C 26106.25438213 .00002455 00000+0 16008-3 0 9992 2 32785 97.8246 86.4279 0007394 232.2641 127.7917 15.08862338975854 SEEDS II (CO-66) 1 32791U 08021J 26106.20215578 .00010111 00000+0 34402-3 0 9997 2 32791 97.7523 101.2482 0004273 135.1115 225.0471 15.30635483977808 YUBILEINY (RS30) 1 32953U 08025A 26106.29127082 -.00000050 00000+0 -43037-3 0 9999 2 32953 82.5068 33.9336 0020608 85.6653 274.6781 12.43177355812003 KKS-1 (KISEKI) 1 33499U 09002H 26106.25167597 .00000769 00000+0 10148-3 0 9994 2 33499 98.1190 27.7222 0008987 124.9056 235.3003 14.82961812927016 SWISSCUBE 1 35932U 09051B 26106.17986767 .00000619 00000+0 13234-3 0 9994 2 35932 98.4072 12.9838 0007892 52.0864 308.1049 14.62358739880094 BEESAT-1 1 35933U 09051C 26105.47286368 .00000476 00000+0 10571-3 0 9999 2 35933 98.4001 12.0297 0006522 67.0090 293.1798 14.61615668880026 ITUPSAT1 1 35935U 09051E 26106.23124338 .00000480 00000+0 10943-3 0 9992 2 35935 98.4088 12.0566 0008762 73.2360 286.9800 14.60344846879690 XIWANG-1 (HOPE-1) 1 36122U 09072B 26106.30460015 .00000383 00000+0 11186-2 0 9998 2 36122 100.3970 61.1401 0007823 19.6644 340.4769 13.16439038784863 O/OREOS (USA 219) 1 37224U 10062C 26106.04272691 .00001310 00000+0 13022-3 0 9998 2 37224 71.9701 221.0738 0014974 192.3964 167.6840 14.93492373107361 JUGNU 1 37839U 11058B 26106.27523611 .00000391 00000+0 64975-4 0 9994 2 37839 19.9622 324.5605 0018604 112.8280 43.2229 14.13757315750255 SRMSAT 1 37841U 11058D 26106.23675399 .00000363 00000+0 52901-4 0 9999 2 37841 19.9721 74.4374 0011612 241.6849 237.7724 14.11560608749057 STRAND-1 1 39090U 13009E 26106.02223535 .00000168 00000+0 70763-4 0 9992 2 39090 98.3910 287.7900 0009680 61.3406 298.8753 14.37125825688135 ZACUBE-1 (TSHEPISOSAT) 1 39417U 13066B 26105.87420362 .00002122 00000+0 16912-3 0 9994 2 39417 97.8129 67.8801 0044912 99.9908 260.6388 15.00670787671385 GOMX-1 1 39430U 13066Q 26106.28320743 .00000735 00000+0 11827-3 0 9995 2 39430 97.6538 310.6415 0127549 276.5082 82.1616 14.69234280660822 CUBEBUG-2 (LO-74) 1 39440U 13066AA 26106.29181969 .00001384 00000+0 13379-3 0 9997 2 39440 97.8866 55.0491 0056658 231.7441 127.8672 14.93340138667752 FUNCUBE-1 (AO-73) 1 39444U 13066AE 26105.85963904 .00005338 00000+0 33985-3 0 9997 2 39444 97.8233 76.0625 0038548 57.5687 302.9260 15.08594905670269 UWE-3 1 39446U 13066AG 26106.10991506 .00001363 00000+0 12235-3 0 9996 2 39446 97.8661 61.8122 0049673 164.5703 195.7047 14.96536857668298 UNISAT-6 1 40012U 14033C 26105.93323681 .00001517 00000+0 16910-3 0 9990 2 40012 97.7798 259.7842 0043964 273.6319 85.9870 14.87880742636900 DUCHIFAT-1 1 40021U 14033M 26106.08756471 .00040778 00000+0 61248-3 0 9990 2 40021 98.0557 157.0610 0003160 278.7348 81.3546 15.54780091646072 QB50P1 1 40025U 14033R 26106.24379247 .00004994 00000+0 25423-3 0 9999 2 40025 98.0995 113.0894 0010707 81.1675 279.0769 15.17277583643630 LILACSAT-2 1 40908U 15049K 26106.31213432 .00010765 00000+0 19753-3 0 9990 2 40908 97.4741 140.8684 0008869 113.6750 246.5433 15.49417861586169 FOX-1A (AO-85) 1 40967U 15058D 26106.30060280 .00001511 00000+0 14735-3 0 9999 2 40967 64.7726 111.2498 0128399 80.8802 280.6811 14.90589429104343 CAS-2T & KS-1Q 1 41847U 16066G 26106.17959822 .00000345 00000+0 58589-4 0 9991 2 41847 98.3838 182.6133 0341384 317.8606 39.6790 14.44555535495848 RADFXSAT (FOX-1B) 1 43017U 17073E 26106.07127013 .00004548 00000+0 20460-3 0 9994 2 43017 97.4795 334.5851 0153519 182.3431 177.7099 15.11603942456000 DIWATA-2B 1 43678U 18084H 26106.27723446 .00001253 00000+0 10549-3 0 9991 2 43678 98.1049 299.8619 0013788 17.5278 342.6418 15.00149839406932 ES'HAIL 2 1 43700U 18090A 26106.02038875 .00000151 00000+0 00000+0 0 9995 2 43700 0.0128 248.0542 0001151 157.5269 191.7183 1.00272401 27056 FOX-1CLIFF (AO-95) 1 43770U 18099N 26106.11191145 .00006462 00000+0 25872-3 0 9990 2 43770 97.4440 166.6358 0008725 196.1500 163.9461 15.25373467403752 ITASAT 1 43786U 18099AE 26106.08465009 .00003884 00000+0 19259-3 0 9993 2 43786 97.4093 158.8538 0012325 202.0240 158.0466 15.18257966403482 JY1SAT (JO-97) 1 43803U 18099AX 26106.13633634 .00009640 00000+0 31721-3 0 9994 2 43803 97.4187 168.8347 0007363 127.2922 232.8992 15.31697363404127 UWE-4 1 43880U 18111E 26106.26563212 .00017043 00000+0 39497-3 0 9996 2 43880 97.5862 31.9922 0008487 168.8334 191.3103 15.42462020401221 TIANYAN 01 1 44881U 19093C 26106.24951698 .00000347 00000+0 45289-4 0 9991 2 44881 97.7562 179.9879 0012160 294.0952 65.8992 14.86419852342213 RS-44 & BREEZE-KM R/B 1 44909U 19096E 26106.16395101 .00000002 00000+0 -30224-4 0 9999 2 44909 82.5263 20.9177 0216444 289.5459 68.2384 12.79747886294413 SALSAT 1 46495U 20068K 26106.24882507 .00004509 00000+0 16347-3 0 9996 2 46495 97.8862 105.5887 0010795 150.8640 209.3203 15.28879578305894 XW-3 (CAS-9) 1 50466U 21131B 26106.27019282 .00000149 00000+0 59727-4 0 9992 2 50466 98.4950 199.0069 0002882 289.4295 70.6583 14.41296302226192 GREENCUBE (IO-117) 1 53109U 22080E 26105.92973728 -.00000003 00000+0 00000+0 0 9993 2 53109 70.1490 319.9077 0008855 303.9068 56.0750 6.42583330 88061 UMKA 1 (RS40S) 1 57172U 23091G 26106.23074408 .00003426 00000+0 16147-3 0 9996 2 57172 97.5108 165.1821 0012129 342.7202 17.3618 15.20126022154594 CUBESX-HSE 3 (RS42S) 1 57178U 23091N 26106.25526779 .00007064 00000+0 24795-3 0 9997 2 57178 97.5142 171.1211 0009614 316.1885 43.8591 15.29694699154958 MONITOR-3 (RS58S) 1 57180U 23091Q 26106.28071290 .00005497 00000+0 21235-3 0 9990 2 57180 97.5136 169.3167 0010658 323.2512 36.7995 15.26628370154846 MONITOR-4 (RS57S) 1 57182U 23091S 26106.13254504 .00005668 00000+0 21826-3 0 9993 2 57182 97.5131 169.1347 0010595 324.3512 35.7018 15.26721489154821 MONITOR-2 (RS39S) 1 57184U 23091U 26106.24290203 .00002854 00000+0 14220-3 0 9997 2 57184 97.5131 164.9353 0010357 335.8196 24.2551 15.18345483154556 SVYATOBOR 1 (RS60S) 1 57187U 23091X 26106.22697751 .00004687 00000+0 18741-3 0 9995 2 57187 97.5142 169.7366 0008209 316.1871 43.8715 15.25578617154861 VIZARD-METEO (RS38S) 1 57189U 23091Z 26106.15379372 .00009224 00000+0 28179-3 0 9993 2 57189 97.5136 174.4793 0005922 292.5002 67.5613 15.34103628155176 NANOZOND 1 (RS49S) 1 57190U 23091AA 26105.93875491 .01255631 10320-2 13179-2 0 9991 2 57190 97.4914 189.9005 0011755 262.5354 97.4594 16.10514752156187 POLYTECH-UNIVERSE 3 (R*) 1 57191U 23091AB 26106.27818704 .00002692 00000+0 13338-3 0 9999 2 57191 97.5106 164.4759 0015128 350.8679 9.2278 15.18541435154559 UTMN 2 (RS27S) 1 57203U 23091AP 26106.24215773 .00006721 00000+0 23000-3 0 9991 2 57203 97.5135 172.6651 0006698 301.7986 58.2601 15.30560557155066 KUZGTU 1 (RS47S) 1 57217U 23091AV 26106.25996419 .00006347 00000+0 23149-3 0 9998 2 57217 97.5116 170.1627 0009818 320.3080 39.7440 15.28476713154910 SONATE-2 1 59112U 24043Q 26106.16211191 .00021494 00000+0 32889-3 0 9990 2 59112 97.5458 252.9988 0007287 74.9107 285.2952 15.54369278118242 MESAT1 1 60209U 24125G 26106.01372897 .00031285 00000+0 42935-3 0 9997 2 60209 97.2391 322.3419 0012535 90.7773 269.4919 15.57192684 99874 OOV-CUBE (TUBSAT-30) 1 60240U 24128F 26106.23414473 .00001303 00000+0 11105-3 0 9999 2 60240 61.9933 81.5480 0051410 120.2136 240.4060 15.02466852 96805 COLIBRI-S (RS67S) 1 61746U 24199M 26106.26522589 .00011785 00000+0 24971-3 0 9990 2 61746 97.3094 339.6454 0010356 137.4233 222.7821 15.45189351127848 HORS 3 (RS81S) 1 61753U 24199U 26106.22677489 .00017782 00000+0 30784-3 0 9996 2 61753 97.3070 341.0013 0008633 138.5616 221.6293 15.50945581127943 HORS 4 (RS82S) 1 61754U 24199V 26106.28325917 .00023417 00000+0 35738-3 0 9995 2 61754 97.3033 341.9199 0008142 134.2226 225.9698 15.54411357128010 HORIZON (RS59S) 1 61757U 24199Y 26106.25072665 .00196706 00000+0 83174-3 0 9993 2 61757 97.2950 347.0885 0006713 126.8242 233.3645 15.84848621128348 ARCTICSAT 1 (RS74S) 1 61762U 24199AD 26106.23001013 .00094164 00000+0 62469-3 0 9995 2 61762 97.2993 346.2190 0007069 118.6946 241.5031 15.75179351128286 SIT-2086 1 61764U 24199AF 26106.26339232 .00013300 00000+0 24233-3 0 9997 2 61764 97.3060 341.7054 0007986 127.6158 232.5819 15.49562905124839 HYPERVIEW 1G (RS66S) 1 61772U 24199AP 26106.26173389 .00048858 00000+0 52332-3 0 9992 2 61772 97.3007 343.4533 0009308 133.8811 226.3218 15.63656112124963 ALTAIR (RS65S) 1 61779U 24199AW 26106.23974216 .00005679 00000+0 16457-3 0 9996 2 61779 97.3121 336.0245 0013706 161.5457 198.6287 15.35865455127608 ASRTU-1 (AO-123) 1 61781U 24199AY 26106.24387388 .00004519 00000+0 13605-3 0 9992 2 61781 97.3093 335.4850 0014549 164.3680 195.8016 15.34762270124425 TUSUR GO (RS78S) 1 61782U 24199AZ 26106.22433388 .00258785 25955-4 94490-3 0 9991 2 61782 97.2907 346.1400 0007028 139.7306 220.4488 15.88363636125144 SAMSAT-IONOSPHERE (RS7*) 1 61784U 24199BB 26106.28108764 .00022503 00000+0 36598-3 0 9997 2 61784 97.3054 340.9245 0011111 141.8254 218.3788 15.52622859127948 RTU MIREA 1 (RS51S) 1 61785U 24199BC 26106.22675876 .00025860 00000+0 38529-3 0 9990 2 61785 97.3045 341.4371 0011237 139.4627 220.7466 15.55016952124829 TEVEL2-4 1 63213U 25052D 26106.25755744 .00009979 00000+0 32065-3 0 9995 2 63213 97.3977 2.6278 0002313 22.9060 337.2284 15.32472769 60621 TEVEL2-5 1 63214U 25052E 26106.27173654 .00009809 00000+0 31663-3 0 9997 2 63214 97.3975 2.6065 0002311 23.7991 336.3357 15.32331684 60625 TEVEL2-6 1 63215U 25052F 26106.21724646 .00009630 00000+0 31130-3 0 9996 2 63215 97.3983 2.5374 0002429 21.7315 338.4030 15.32290903 60613 TEVEL2-1 1 63217U 25052H 26106.22630097 .00009137 00000+0 29975-3 0 9991 2 63217 97.3947 2.2396 0003035 32.8293 327.3137 15.31828555 60601 TEVEL2-3 1 63218U 25052J 26106.22291477 .00009318 00000+0 30522-3 0 9998 2 63218 97.3956 2.2517 0003027 30.4351 329.7066 15.31871706 60600 TEVEL2-2 1 63219U 25052K 26106.22687460 .00009172 00000+0 30087-3 0 9994 2 63219 97.3954 2.2420 0003012 30.4172 329.7244 15.31832627 60604 TEVEL2-9 1 63237U 25052AD 26105.60457266 .00008872 00000+0 30782-3 0 9992 2 63237 97.4014 1.1226 0006779 23.1336 337.0209 15.30007003 60455 TEVEL2-7 1 63238U 25052AE 26106.22318148 .00008350 00000+0 29200-3 0 9991 2 63238 97.4018 1.6788 0006810 20.9427 339.2091 15.29769732 60545 TEVEL2-8 1 63239U 25052AF 26106.23071780 .00008828 00000+0 30871-3 0 9997 2 63239 97.4006 1.6649 0006849 22.3291 337.8246 15.29750654 60545 HADES-ICM 1 63492U 25052BN 26105.68886659 .00169609 00000+0 13067-2 0 9997 2 63492 97.3880 7.8439 0003839 83.5498 276.6202 15.71459742 60929 INNOSAT 16 (RS92S7) 1 64878U 25155C 26106.26172151 .00003946 00000+0 16199-3 0 9991 2 64878 97.4518 73.6395 0012100 51.4651 308.7669 15.24749947 71232 GEOSCAN 6 (RS92S6) 1 64879U 25155D 26106.22754164 .00006169 00000+0 22197-3 0 9993 2 64879 97.4512 74.6161 0009408 48.6646 311.5402 15.28932411 71295 GEOSCAN 1 (RS92S1) 1 64880U 25155E 26106.25205054 .00006952 00000+0 24603-3 0 9991 2 64880 97.4510 74.7396 0009367 49.0917 311.1133 15.29426086 71302 239ALFEROV (RS61S) 1 64881U 25155F 26106.23681235 .00008749 00000+0 29224-3 0 9999 2 64881 97.4513 75.0957 0009016 49.8219 310.3810 15.31229836 71329 GEOSCAN 2 (RS92S2) 1 64890U 25155Q 26106.25706778 .00006906 00000+0 24231-3 0 9997 2 64890 97.4509 74.8717 0008319 38.9648 321.2191 15.29720421 71310 GEOSCAN 5 (RS92S5) 1 64891U 25155R 26106.23883396 .00008380 00000+0 27729-3 0 9991 2 64891 97.4505 75.2111 0008093 56.6784 303.5231 15.31559015 71339 GEOSCAN 4 (RS92S4) 1 64892U 25155S 26106.22849936 .00008424 00000+0 27769-3 0 9996 2 64892 97.4509 75.2333 0008123 57.0438 303.1584 15.31678837 71336 GEOSCAN 3 (RS92S3) 1 64893U 25155T 26106.23596278 .00010612 00000+0 33216-3 0 9992 2 64893 97.4499 75.5108 0007997 59.6707 300.5325 15.33270337 71354 INNOSAT 3 (RS92S0) 1 64894U 25155U 26106.26051605 .00022010 00000+0 55978-3 0 9990 2 64894 97.4462 76.4947 0007617 64.6434 295.5600 15.39593037 71426 KNACKSAT-2 1 67683U 98067XZ 26105.78258983 .00026505 00000+0 39373-3 0 9999 2 67683 51.6306 247.1030 0011498 325.8879 34.1372 15.54923945 10553